[[{"header":{"parameterUnit":"m.s-1","parameterCategory":1,"la1":30.2991,"la2":30.254,"lo1":-89.0895,"lo2":-89.0444,"dy":0.0017,"dx":0.0017,"nx":28,"ny":28,"refTime":"2025-06-17T03:00:00:Z","depth":0,"parameterNumber":2,"parameterNumberName":"U-component_of_WINDS"},"data":[0,0,0,0,0,0,0,0,0,0,0,0,0,0,0,0,0,0,0,0,0,0,0,0,0,0,0,0,0,0,0,0,0,0,0,0,0,0,0,0,0,0,0,0,0,0,0,0,0,0,0,0,0,0,0,0,0,0,0.7172,0.7171,0,0.7118,0.7117,0.7116,0.7077,0.7076,0.7076,0.7076,0.7019,0.7018,0.7017,0,0,0,0,0,0,0,0,0,0,0,0,0,0.7238,0.7237,0.7172,0.7171,0.7171,0.7118,0.7117,0.7116,0.7077,0.7076,0.7076,0.7076,0.702,0.7018,0.7017,0,0,0,0,0,0,0,0,0,0,0,0,0,0.7199,0.7237,0.7172,0.7145,0.7142,0.7118,0.7117,0.7116,0.7077,0.7076,0.7076,0.7075,0.702,0.7018,0.7017,0.7016,0,0,0.7011,0.701,0,0,0,0,0,0,0,0,0.7202,0.7197,0.7149,0.7146,0.7143,0.7103,0.712,0.7082,0.7077,0.7101,0.7076,0.7075,0.7048,0.7044,0.7034,0.7013,0.7011,0.7011,0.701,0.7009,0.7009,0,0,0,0,0,0,0,0.7204,0.7199,0.7151,0.7149,0.7145,0.7134,0.7128,0.7112,0.7078,0.7099,0.7096,0.709,0.7046,0.7036,0.7033,0.701,0.7011,0.7009,0.7008,0.7008,0.6981,0.6982,0,0,0,0,0,0,0.7212,0.7202,0.7152,0.7149,0.7172,0.7133,0.7126,0.7117,0.7078,0.7072,0.7091,0.7089,0.704,0.7035,0.7031,0.7025,0.7009,0.7008,0.7007,0.6981,0.6981,0.6982,0,0,0,0,0,0,0.7213,0.7208,0.7154,0.7174,0.7167,0.7133,0.7122,0.7116,0.7106,0.7072,0.7065,0.7088,0.7039,0.7033,0.7019,0.7022,0.7007,0.7005,0.698,0.6981,0.6981,0.7015,0,0,0,0,0,0,0.7215,0.7209,0.7209,0.7175,0.7166,0.7145,0.7122,0.7115,0.7103,0.71,0.7067,0.7061,0.7038,0.7022,0.7017,0.702,0.7004,0.698,0.6981,0.6981,0.7013,0.7016,0.7019,0,0,0,0,0,0.7218,0.7221,0.7209,0.7203,0.7166,0.7145,0.714,0.7114,0.7104,0.7103,0.708,0.7062,0.7023,0.7021,0.7015,0.7017,0.698,0.698,0.6981,0.7012,0.7016,0.7019,0,0,0,0,0,0,0.7257,0.7216,0.7203,0.7195,0.7174,0.7139,0.7137,0.7119,0.7101,0.7098,0.7066,0.7059,0.7047,0.7031,0.7029,0.7012,0.6999,0.6998,0.7024,0.7027,0.703,0.7034,0.7002,0,0,0,0,0,0.7264,0.7252,0.7217,0.7213,0.7203,0.7172,0.7162,0.7143,0.712,0.7111,0.7087,0.7065,0.7047,0.7036,0.7018,0.701,0.7001,0.7009,0.7012,0.7014,0.7014,0.7006,0.7008,0.6984,0.6984,0.6984,0,0,0.728,0.7256,0.7251,0.722,0.7202,0.7188,0.7165,0.7152,0.7141,0.7109,0.7094,0.7075,0.7048,0.7036,0.703,0.7022,0.7018,0.7015,0.7018,0.7016,0.7007,0.7009,0.7011,0.6985,0.6985,0.6985,0,0,0.7302,0.7283,0.7277,0.7258,0.723,0.7209,0.7207,0.7174,0.7161,0.7145,0.7119,0.7105,0.7076,0.7057,0.7043,0.7054,0.7035,0.7049,0.7064,0.7056,0.7058,0.7059,0.7061,0.7062,0.7049,0.7049,0.7049,0,0.7325,0.7304,0.7276,0.7264,0.725,0.722,0.7212,0.7195,0.7163,0.7153,0.7145,0.7106,0.7085,0.7067,0.7069,0.706,0.7055,0.7052,0.706,0.7061,0.7062,0.7063,0.7064,0.7051,0.705,0.705,0.705,0,0.7333,0.7318,0.7317,0.7285,0.7271,0.7262,0.723,0.722,0.7201,0.718,0.7163,0.7137,0.7112,0.7106,0.7089,0.7084,0.708,0.7066,0.7052,0.7067,0.7067,0.7068,0.7053,0.7052,0.7052,0.7052,0,0,0.7378,0.733,0.7329,0.7314,0.7279,0.7267,0.7255,0.723,0.722,0.7198,0.7185,0.716,0.7146,0.713,0.711,0.7103,0.711,0.709,0.7089,0.7093,0.7101,0.7111,0.7112,0.7098,0.7098,0.7098,0.7103,0,0.7393,0.737,0.7343,0.7329,0.7314,0.7284,0.7272,0.7249,0.7228,0.7212,0.7188,0.717,0.7155,0.7144,0.7136,0.7111,0.7111,0.7111,0.7084,0.7084,0.7092,0.7113,0.7124,0.713,0.7103,0.7103,0.7103,0,0.7408,0.7387,0.7371,0.7335,0.7328,0.7319,0.7292,0.7277,0.7249,0.7234,0.7215,0.7193,0.7176,0.7163,0.7139,0.7139,0.7126,0.7112,0.7111,0.7107,0.7094,0.7108,0.7132,0.7132,0.7104,0.7104,0.7104,0,0.7441,0.7408,0.7393,0.7381,0.734,0.7333,0.7315,0.7287,0.7273,0.7249,0.7239,0.7214,0.72,0.718,0.7151,0.7145,0.7128,0.7114,0.7114,0.7115,0.7112,0.7113,0.7132,0.7105,0.7105,0.7105,0.7105,0,0.746,0.7451,0.7407,0.7398,0.7386,0.7355,0.7343,0.7323,0.7297,0.7282,0.7254,0.7241,0.7203,0.7184,0.7161,0.7143,0.7137,0.7123,0.7117,0.7126,0.7127,0.7117,0.7115,0.7106,0.7106,0.7106,0.7105,0,0.7494,0.7465,0.7447,0.7408,0.7398,0.7391,0.7357,0.7347,0.7324,0.7305,0.7299,0.7262,0.7238,0.7207,0.7174,0.7158,0.7142,0.7133,0.7152,0.7148,0.7149,0.7149,0.7163,0.7162,0.7137,0.7137,0.7137,0,0.7508,0.75,0.746,0.7448,0.7431,0.7413,0.7398,0.7365,0.7351,0.7316,0.7309,0.7283,0.7261,0.7224,0.7194,0.7167,0.7156,0.7163,0.7152,0.716,0.7155,0.7155,0.7153,0.7165,0.7166,0.7166,0.7167,0,0.7534,0.7519,0.7499,0.7474,0.7456,0.7434,0.7411,0.7403,0.7365,0.7349,0.7324,0.7307,0.7272,0.7246,0.7215,0.7195,0.7174,0.717,0.7168,0.7176,0.7187,0.718,0.7158,0.717,0.717,0.7169,0.7169,0.7169,0.7557,0.7548,0.7518,0.7496,0.7475,0.7453,0.744,0.7415,0.7394,0.7363,0.7345,0.7321,0.7289,0.7246,0.7226,0.7205,0.7197,0.7196,0.7195,0.7195,0.7197,0.7191,0.72,0.72,0.7199,0.7199,0.7199,0,0.7581,0.756,0.754,0.7507,0.7489,0.7471,0.7444,0.7429,0.7408,0.7382,0.736,0.733,0.7304,0.727,0.7241,0.7231,0.722,0.7224,0.7224,0.722,0.7206,0.721,0.7233,0.7233,0.7233,0.7233,0.7233,0.7233,0.7591,0.7574,0.7555,0.7526,0.7504,0.7481,0.7466,0.7445,0.7423,0.7392,0.737,0.7348,0.7318,0.7286,0.7261,0.7251,0.7241,0.7248,0.7236,0.7224,0.7221,0.7218,0.7221,0.7246,0.7246,0.725,0.725,0.725]},{"header":{"parameterUnit":"m.s-1","parameterCategory":1,"la1":30.2991,"la2":30.254,"lo1":-89.0895,"lo2":-89.0444,"dy":0.0017,"dx":0.0017,"nx":28,"ny":28,"refTime":"2025-06-17T03:00:00:Z","depth":0,"parameterNumber":3,"parameterNumberName":"V-component_of_WINDS"},"data":[0,0,0,0,0,0,0,0,0,0,0,0,0,0,0,0,0,0,0,0,0,0,0,0,0,0,0,0,0,0,0,0,0,0,0,0,0,0,0,0,0,0,0,0,0,0,0,0,0,0,0,0,0,0,0,0,0,0,6.1738,6.174,0,6.1951,6.1953,6.1956,6.194,6.1937,6.1934,6.1931,6.2139,6.2148,6.2156,0,0,0,0,0,0,0,0,0,0,0,0,0,6.1306,6.1314,6.1738,6.174,6.1743,6.195,6.1953,6.1956,6.194,6.1937,6.1933,6.1929,6.2137,6.2147,6.2157,0,0,0,0,0,0,0,0,0,0,0,0,0,6.1503,6.1316,6.1737,6.176,6.1765,6.195,6.1953,6.1957,6.1941,6.1937,6.1932,6.1927,6.2133,6.2146,6.2158,6.2331,0,0,6.2197,6.2203,0,0,0,0,0,0,0,0,6.1492,6.1519,6.1754,6.1759,6.1764,6.1914,6.1877,6.2082,6.1942,6.1874,6.1931,6.1925,6.2068,6.2085,6.2135,6.2341,6.235,6.2198,6.2206,6.2211,6.2215,0,0,0,0,0,0,0,6.1478,6.151,6.1822,6.1758,6.1764,6.1756,6.1779,6.1916,6.1994,6.1879,6.1879,6.1905,6.2069,6.2123,6.214,6.2353,6.2198,6.2209,6.2217,6.2222,6.2706,6.2711,0,0,0,0,0,0,6.1461,6.1498,6.1815,6.1828,6.1614,6.1768,6.1793,6.1871,6.1993,6.2007,6.1909,6.1903,6.2104,6.2125,6.2147,6.2356,6.2211,6.2223,6.2231,6.2701,6.2707,6.2713,0,0,0,0,0,0,6.1452,6.1489,6.1806,6.1663,6.1703,6.178,6.1867,6.1877,6.1931,6.2015,6.2028,6.195,6.2101,6.213,6.2285,6.2363,6.2229,6.2241,6.2695,6.2703,6.271,6.2775,0,0,0,0,0,0,6.1439,6.1486,6.1556,6.1665,6.1711,6.1945,6.1872,6.1885,6.1954,6.195,6.2057,6.2071,6.2099,6.2266,6.2298,6.2378,6.2251,6.2688,6.2699,6.2708,6.2767,6.2784,6.28,0,0,0,0,0,6.1424,6.1564,6.1559,6.1598,6.18,6.1949,6.1975,6.2008,6.1961,6.2029,6.2082,6.2067,6.2349,6.2283,6.2318,6.2403,6.2684,6.2696,6.2707,6.2759,6.2781,6.2799,0,0,0,0,0,0,6.146,6.1579,6.1575,6.1756,6.1843,6.1946,6.2034,6.203,6.213,6.2121,6.2155,6.2179,6.2335,6.2384,6.2308,6.2574,6.251,6.2529,6.2537,6.2558,6.2575,6.2559,6.2261,0,0,0,0,0,6.1489,6.1604,6.17,6.185,6.1894,6.1957,6.2023,6.2041,6.2131,6.2166,6.2231,6.2316,6.2423,6.2494,6.2597,6.2773,6.2794,6.2848,6.2865,6.2878,6.2894,6.2987,6.3011,6.2752,6.2752,6.2751,0,0,6.155,6.1629,6.1699,6.1859,6.1929,6.2043,6.1988,6.2111,6.2195,6.2184,6.2336,6.2386,6.2482,6.2648,6.2724,6.2694,6.297,6.2893,6.2903,6.2912,6.3002,6.3026,6.3048,6.276,6.2758,6.2757,0,0,6.172,6.1793,6.1924,6.1995,6.2101,6.2141,6.2173,6.2277,6.231,6.2463,6.2457,6.2554,6.274,6.2808,6.2867,6.3058,6.3047,6.3091,6.3177,6.3267,6.3287,6.3306,6.3371,6.3395,6.3106,6.3107,6.3107,0,6.1781,6.1957,6.1991,6.2116,6.2185,6.2182,6.2313,6.2379,6.2512,6.2558,6.2522,6.2753,6.2818,6.2998,6.3045,6.3093,6.3127,6.3079,6.3282,6.3301,6.3318,6.3381,6.3406,6.3111,6.3111,6.311,6.311,0,6.2025,6.2147,6.2239,6.2371,6.245,6.2577,6.2627,6.2702,6.2711,6.2754,6.2906,6.2984,6.3102,6.3146,6.3156,6.3327,6.3304,6.3276,6.3211,6.3347,6.3407,6.3431,6.3118,6.3116,6.3115,6.3114,0,0,6.2226,6.2373,6.2407,6.2465,6.258,6.2673,6.2797,6.2915,6.2977,6.3068,6.317,6.3326,6.3299,6.3366,6.3383,6.3462,6.3605,6.3423,6.3426,6.3453,6.3794,6.3814,6.3842,6.3598,6.3603,6.3607,6.3785,0,6.2405,6.2631,6.2664,6.286,6.297,6.2967,6.3075,6.3155,6.3197,6.3292,6.3337,6.3446,6.3404,6.3444,6.3522,6.3571,6.3674,6.3559,6.369,6.3695,6.3666,6.3873,6.3896,6.4061,6.3808,6.3813,6.3815,0,6.2646,6.2746,6.2954,6.3052,6.3099,6.3196,6.3304,6.3398,6.3486,6.351,6.3584,6.3591,6.3715,6.3645,6.3814,6.3735,6.379,6.3822,6.3829,6.3842,6.3763,6.389,6.4114,6.4138,6.3853,6.385,6.3847,0,6.2769,6.2954,6.3102,6.3152,6.327,6.3338,6.3389,6.3474,6.3541,6.3635,6.3678,6.3784,6.3841,6.3921,6.3954,6.39,6.412,6.4054,6.414,6.414,6.4187,6.4183,6.4422,6.4224,6.4224,6.4223,6.4223,0,6.2966,6.3093,6.3159,6.3249,6.339,6.3424,6.3561,6.3609,6.3684,6.378,6.3783,6.3873,6.3912,6.4007,6.4033,6.4167,6.4193,6.4214,6.4219,6.4213,6.4211,6.4249,6.4238,6.423,6.4228,6.4227,6.4226,0,6.3127,6.3177,6.3337,6.3436,6.3463,6.3562,6.3644,6.3729,6.3769,6.3892,6.3922,6.3984,6.4095,6.4136,6.4271,6.4288,6.4443,6.444,6.4414,6.4415,6.4499,6.449,6.477,6.4807,6.4586,6.4589,6.459,0,6.3249,6.3347,6.3456,6.3522,6.3577,6.3684,6.3753,6.3788,6.3859,6.3966,6.4037,6.4149,6.424,6.4417,6.4472,6.4574,6.4571,6.4662,6.4587,6.4577,6.457,6.4564,6.4572,6.4676,6.4679,6.468,6.4682,0,6.346,6.3479,6.3581,6.369,6.3772,6.3859,6.3943,6.3996,6.4044,6.4123,6.4238,6.4309,6.4447,6.4556,6.466,6.4708,6.4702,6.4705,6.473,6.4725,6.4706,6.4715,6.4451,6.4699,6.4697,6.4696,6.4695,6.4694,6.3605,6.369,6.378,6.3891,6.3958,6.4036,6.4121,6.4171,6.4269,6.4386,6.44,6.4522,6.4604,6.4744,6.4797,6.489,6.4865,6.4902,6.4911,6.4919,6.4925,6.4692,6.4909,6.4909,6.4908,6.4908,6.4908,0,6.3814,6.3871,6.3973,6.4092,6.4178,6.4167,6.4258,6.433,6.4439,6.4517,6.4607,6.4737,6.4842,6.4904,6.5008,6.507,6.507,6.5096,6.5092,6.5102,6.4942,6.4909,6.5095,6.5095,6.5095,6.5095,6.5095,6.5095,6.3933,6.4077,6.4106,6.428,6.4335,6.4458,6.451,6.458,6.4643,6.4789,6.4877,6.4917,6.4988,6.5096,6.5191,6.5206,6.5243,6.5272,6.5284,6.5133,6.5114,6.5095,6.5065,6.528,6.528,6.5436,6.5437,6.5438]}]]